[[{"header":{"parameterUnit":"m.s-1","parameterCategory":1,"la1":30.2991,"la2":30.254,"lo1":-89.0895,"lo2":-89.0444,"dy":0.0017,"dx":0.0017,"nx":28,"ny":28,"refTime":"2023-08-26T09:00:00:Z","depth":0,"parameterNumber":2,"parameterNumberName":"U-component_of_WINDS"},"data":[0,0,0,0,0,0,0,0,0,0,0,0,0,0,0,0,0,0,0,0,0,0,0,0,0,0,0,0,0,0,0,0,0,0,0,0,0,0,0,0,0,0,0,0,0,0,0,0,0,0,0,0,0,0,0,0,0,0,2.7159,2.7159,0,2.7129,2.7129,2.7128,2.7057,2.7056,2.7054,2.7053,2.7022,2.7023,2.7023,0,0,0,0,0,0,0,0,0,0,0,0,0,2.7156,2.7157,2.7159,2.7159,2.7158,2.7129,2.7129,2.7128,2.7057,2.7055,2.7054,2.7052,2.7022,2.7022,2.7023,0,0,0,0,0,0,0,0,0,0,0,0,0,2.7145,2.7157,2.7159,2.7119,2.7115,2.7129,2.7129,2.7128,2.7058,2.7055,2.7053,2.7051,2.7022,2.7022,2.7023,2.7073,0,0,2.7026,2.7026,0,0,0,0,0,0,0,0,2.7146,2.7145,2.7125,2.7122,2.7118,2.7094,2.7116,2.711,2.7058,2.708,2.7053,2.705,2.7048,2.7046,2.7046,2.7072,2.7071,2.7026,2.7026,2.7027,2.7027,0,0,0,0,0,0,0,2.7147,2.7146,2.7147,2.7125,2.7121,2.7104,2.7099,2.7115,2.7077,2.7078,2.7072,2.707,2.7045,2.7045,2.7045,2.707,2.7026,2.7027,2.7027,2.7028,2.7139,2.7142,0,0,0,0,0,0,2.7153,2.7147,2.7148,2.7146,2.7127,2.7105,2.7101,2.7104,2.7076,2.707,2.7072,2.7067,2.7045,2.7044,2.7043,2.7102,2.7027,2.7028,2.7028,2.7137,2.714,2.7143,0,0,0,0,0,0,2.7153,2.7154,2.7149,2.7145,2.7143,2.7108,2.7112,2.7105,2.7104,2.7072,2.7065,2.7078,2.7043,2.7042,2.7067,2.71,2.7028,2.7029,2.7134,2.7138,2.7141,2.722,0,0,0,0,0,0,2.7154,2.7154,2.7172,2.7146,2.7144,2.7173,2.7114,2.7106,2.7106,2.7099,2.7076,2.707,2.7041,2.7066,2.7068,2.71,2.7029,2.7131,2.7136,2.714,2.7214,2.7226,2.7236,0,0,0,0,0,2.7154,2.7195,2.7174,2.7174,2.7166,2.7175,2.7174,2.714,2.7109,2.7128,2.7107,2.7071,2.7096,2.7069,2.7071,2.7104,2.7129,2.7134,2.714,2.7209,2.7223,2.7235,0,0,0,0,0,0,2.7225,2.7191,2.7167,2.72,2.7192,2.7163,2.7185,2.7155,2.7155,2.7148,2.7105,2.7101,2.7133,2.712,2.7091,2.7152,2.7107,2.7113,2.7159,2.7172,2.7183,2.7186,2.703,0,0,0,0,0,2.7245,2.7255,2.7224,2.7257,2.7254,2.7221,2.7224,2.7198,2.7187,2.7183,2.7164,2.7155,2.7161,2.7166,2.7169,2.7212,2.7207,2.7235,2.7246,2.7255,2.7261,2.7286,2.7299,2.7161,2.7161,2.716,0,0,2.7285,2.7268,2.7277,2.7271,2.7261,2.7274,2.7218,2.7233,2.7243,2.7185,2.7208,2.7195,2.7182,2.7217,2.7231,2.7208,2.7299,2.7262,2.727,2.7271,2.7293,2.7306,2.7318,2.7164,2.7164,2.7163,0,0,2.7366,2.7353,2.7381,2.7373,2.7359,2.7337,2.7344,2.7321,2.731,2.7332,2.729,2.7301,2.7312,2.7305,2.7303,2.7386,2.7354,2.7388,2.7445,2.7469,2.748,2.749,2.7521,2.7533,2.7394,2.7394,2.7394,0,2.7419,2.7436,2.7399,2.7418,2.7418,2.7367,2.7396,2.7389,2.7377,2.7379,2.7353,2.7367,2.7354,2.7389,2.741,2.7409,2.7417,2.7391,2.7481,2.7491,2.7499,2.7529,2.7541,2.7399,2.7398,2.7398,2.7397,0,2.7502,2.7515,2.7539,2.7531,2.7533,2.7556,2.7524,2.7531,2.7506,2.7488,2.7513,2.7497,2.7498,2.7503,2.7478,2.7535,2.7521,2.7489,2.7443,2.7517,2.7545,2.7556,2.7405,2.7403,2.7402,2.7401,0,0,2.7626,2.7599,2.7608,2.7605,2.7587,2.7597,2.7619,2.7621,2.7629,2.7623,2.7642,2.7653,2.7624,2.7622,2.7596,2.7618,2.7688,2.7583,2.7582,2.7605,2.7752,2.7778,2.7792,2.7666,2.7668,2.7669,2.7754,0,2.7705,2.7741,2.771,2.7753,2.7766,2.7719,2.7739,2.7731,2.7715,2.7724,2.7706,2.7716,2.7675,2.7674,2.7693,2.7675,2.7717,2.7668,2.7685,2.7686,2.7691,2.7806,2.7832,2.7913,2.7764,2.7766,2.7767,0,2.78,2.78,2.7845,2.7828,2.7832,2.785,2.7851,2.7859,2.785,2.7837,2.7837,2.7806,2.7828,2.7782,2.7813,2.7781,2.7786,2.7779,2.7781,2.7782,2.7732,2.7812,2.7938,2.7951,2.7783,2.7782,2.7781,0,2.789,2.7901,2.793,2.7928,2.7907,2.7922,2.7914,2.7903,2.7907,2.7907,2.791,2.7912,2.7914,2.7918,2.7889,2.7858,2.7925,2.7876,2.7917,2.7918,2.7933,2.7933,2.8064,2.7934,2.7934,2.7934,2.7933,0,2.7981,2.8011,2.797,2.7988,2.8021,2.7985,2.8019,2.8006,2.7997,2.8013,2.7972,2.7988,2.7948,2.796,2.7938,2.7969,2.7969,2.7961,2.7955,2.7965,2.7967,2.7969,2.7963,2.7937,2.7936,2.7935,2.7935,0,2.8087,2.806,2.8089,2.8068,2.8063,2.8089,2.8071,2.8088,2.8069,2.809,2.8093,2.8065,2.8077,2.8049,2.8056,2.8042,2.8087,2.8071,2.809,2.8086,2.8129,2.8126,2.8267,2.8284,2.8142,2.8143,2.8144,0,2.8148,2.817,2.8152,2.816,2.8155,2.8167,2.8172,2.8138,2.8144,2.8138,2.8156,2.8165,2.817,2.8193,2.8173,2.818,2.8165,2.8214,2.8166,2.8177,2.8169,2.8169,2.8172,2.8224,2.8226,2.8228,2.8229,0,2.826,2.8246,2.8254,2.8259,2.8265,2.8267,2.8266,2.8275,2.8239,2.8248,2.8261,2.8266,2.8275,2.8286,2.8288,2.8281,2.825,2.8244,2.8254,2.8266,2.8277,2.8274,2.8119,2.8241,2.824,2.8239,2.8238,2.8238,2.8346,2.8365,2.8356,2.8367,2.8363,2.8364,2.8379,2.8364,2.8374,2.8379,2.8359,2.8377,2.837,2.837,2.8366,2.8381,2.8359,2.8373,2.8377,2.8381,2.8389,2.8274,2.8381,2.838,2.838,2.838,2.8379,0,2.8458,2.8451,2.8461,2.8462,2.8472,2.8442,2.8439,2.845,2.8466,2.8462,2.8469,2.8485,2.8496,2.8478,2.8486,2.8502,2.8488,2.8505,2.8505,2.8504,2.8407,2.8399,2.8516,2.8516,2.8516,2.8516,2.8516,2.8516,2.8518,2.8549,2.8535,2.8565,2.8557,2.8575,2.8577,2.8578,2.8575,2.8595,2.8604,2.8592,2.8583,2.8591,2.86,2.8595,2.8601,2.8624,2.8614,2.8524,2.851,2.8498,2.849,2.8625,2.8625,2.8709,2.871,2.8711]},{"header":{"parameterUnit":"m.s-1","parameterCategory":1,"la1":30.2991,"la2":30.254,"lo1":-89.0895,"lo2":-89.0444,"dy":0.0017,"dx":0.0017,"nx":28,"ny":28,"refTime":"2023-08-26T09:00:00:Z","depth":0,"parameterNumber":3,"parameterNumberName":"V-component_of_WINDS"},"data":[0,0,0,0,0,0,0,0,0,0,0,0,0,0,0,0,0,0,0,0,0,0,0,0,0,0,0,0,0,0,0,0,0,0,0,0,0,0,0,0,0,0,0,0,0,0,0,0,0,0,0,0,0,0,0,0,0,0,-2.4471,-2.4471,0,-2.447,-2.447,-2.447,-2.4472,-2.4472,-2.4472,-2.4472,-2.4468,-2.4468,-2.4468,0,0,0,0,0,0,0,0,0,0,0,0,0,-2.4475,-2.4475,-2.4471,-2.4471,-2.4471,-2.447,-2.447,-2.447,-2.4472,-2.4472,-2.4472,-2.4472,-2.4468,-2.4468,-2.4468,0,0,0,0,0,0,0,0,0,0,0,0,0,-2.4473,-2.4475,-2.4471,-2.4472,-2.4472,-2.447,-2.447,-2.447,-2.4472,-2.4472,-2.4472,-2.4472,-2.4469,-2.4468,-2.4468,-2.4464,0,0,-2.4467,-2.4467,0,0,0,0,0,0,0,0,-2.4473,-2.4473,-2.4472,-2.4472,-2.4472,-2.4471,-2.447,-2.4468,-2.4472,-2.4472,-2.4472,-2.4472,-2.4469,-2.4469,-2.4468,-2.4464,-2.4464,-2.4467,-2.4467,-2.4467,-2.4467,0,0,0,0,0,0,0,-2.4474,-2.4473,-2.4471,-2.4472,-2.4472,-2.4472,-2.4472,-2.447,-2.447,-2.4472,-2.4472,-2.4472,-2.4469,-2.4469,-2.4468,-2.4464,-2.4467,-2.4467,-2.4467,-2.4467,-2.446,-2.446,0,0,0,0,0,0,-2.4474,-2.4473,-2.4471,-2.4471,-2.4473,-2.4472,-2.4472,-2.4471,-2.447,-2.447,-2.4472,-2.4472,-2.4469,-2.4469,-2.4468,-2.4465,-2.4467,-2.4467,-2.4467,-2.446,-2.446,-2.446,0,0,0,0,0,0,-2.4474,-2.4474,-2.4471,-2.4472,-2.4472,-2.4472,-2.4471,-2.4471,-2.4471,-2.447,-2.447,-2.4471,-2.4469,-2.4468,-2.4466,-2.4465,-2.4467,-2.4467,-2.446,-2.446,-2.446,-2.4459,0,0,0,0,0,0,-2.4474,-2.4474,-2.4472,-2.4472,-2.4472,-2.4469,-2.4471,-2.4471,-2.4471,-2.4471,-2.4469,-2.4469,-2.4469,-2.4466,-2.4466,-2.4465,-2.4466,-2.446,-2.446,-2.446,-2.4459,-2.4459,-2.4459,0,0,0,0,0,-2.4474,-2.4471,-2.4472,-2.4472,-2.447,-2.4469,-2.4469,-2.4469,-2.447,-2.4469,-2.4469,-2.4469,-2.4466,-2.4466,-2.4466,-2.4465,-2.446,-2.446,-2.446,-2.4459,-2.4459,-2.4459,0,0,0,0,0,0,-2.4469,-2.4471,-2.4472,-2.4469,-2.4469,-2.4469,-2.4467,-2.4469,-2.4467,-2.4468,-2.4468,-2.4467,-2.4465,-2.4465,-2.4465,-2.4462,-2.4463,-2.4463,-2.4463,-2.4463,-2.4462,-2.4463,-2.4466,0,0,0,0,0,-2.4468,-2.4467,-2.4469,-2.4466,-2.4466,-2.4467,-2.4466,-2.4467,-2.4467,-2.4466,-2.4466,-2.4465,-2.4464,-2.4463,-2.4462,-2.4459,-2.446,-2.4458,-2.4458,-2.4458,-2.4458,-2.4458,-2.4458,-2.4459,-2.4459,-2.4459,0,0,-2.4465,-2.4466,-2.4465,-2.4465,-2.4465,-2.4464,-2.4466,-2.4465,-2.4465,-2.4466,-2.4464,-2.4464,-2.4463,-2.4462,-2.4461,-2.4461,-2.4458,-2.4458,-2.4458,-2.4458,-2.4458,-2.4458,-2.4458,-2.4459,-2.4459,-2.4459,0,0,-2.4459,-2.4459,-2.4458,-2.4459,-2.446,-2.4461,-2.4461,-2.4461,-2.4462,-2.446,-2.4462,-2.4461,-2.4459,-2.4459,-2.4459,-2.4457,-2.4457,-2.4456,-2.4455,-2.4456,-2.4456,-2.4456,-2.4456,-2.4456,-2.4456,-2.4456,-2.4456,0,-2.4455,-2.4455,-2.4457,-2.4457,-2.4457,-2.4459,-2.4459,-2.4459,-2.4459,-2.4459,-2.446,-2.4459,-2.4458,-2.4457,-2.4457,-2.4456,-2.4457,-2.4456,-2.4456,-2.4456,-2.4456,-2.4456,-2.4456,-2.4456,-2.4456,-2.4456,-2.4456,0,-2.445,-2.445,-2.4449,-2.4451,-2.4451,-2.445,-2.4453,-2.4453,-2.4454,-2.4455,-2.4455,-2.4455,-2.4455,-2.4455,-2.4455,-2.4455,-2.4455,-2.4456,-2.4456,-2.4456,-2.4456,-2.4456,-2.4456,-2.4456,-2.4456,-2.4456,0,0,-2.444,-2.4445,-2.4445,-2.4447,-2.4449,-2.4449,-2.4449,-2.445,-2.4451,-2.4451,-2.4452,-2.4451,-2.4453,-2.4452,-2.4453,-2.4454,-2.4454,-2.4454,-2.4454,-2.4455,-2.4455,-2.4455,-2.4455,-2.4455,-2.4455,-2.4455,-2.4456,0,-2.4435,-2.4436,-2.4439,-2.4439,-2.444,-2.4444,-2.4444,-2.4446,-2.4447,-2.4448,-2.445,-2.445,-2.4451,-2.4452,-2.4452,-2.4454,-2.4454,-2.4454,-2.4456,-2.4456,-2.4456,-2.4455,-2.4455,-2.4455,-2.4456,-2.4456,-2.4456,0,-2.443,-2.4432,-2.4432,-2.4437,-2.4438,-2.4438,-2.444,-2.4441,-2.4444,-2.4445,-2.4447,-2.4448,-2.4449,-2.445,-2.4452,-2.4452,-2.4453,-2.4454,-2.4454,-2.4455,-2.4456,-2.4456,-2.4456,-2.4456,-2.4456,-2.4456,-2.4456,0,-2.4423,-2.4426,-2.4428,-2.4429,-2.4434,-2.4435,-2.4437,-2.444,-2.4441,-2.4443,-2.4444,-2.4446,-2.4447,-2.4449,-2.4452,-2.4452,-2.4454,-2.4455,-2.4456,-2.4456,-2.4456,-2.4456,-2.4456,-2.4456,-2.4456,-2.4456,-2.4456,0,-2.4418,-2.4418,-2.4425,-2.4426,-2.4427,-2.4431,-2.4432,-2.4435,-2.4438,-2.444,-2.4442,-2.4444,-2.4447,-2.4449,-2.4451,-2.4454,-2.4454,-2.4455,-2.4456,-2.4455,-2.4455,-2.4456,-2.4456,-2.4456,-2.4456,-2.4456,-2.4456,0,-2.4411,-2.4416,-2.4417,-2.4423,-2.4425,-2.4426,-2.443,-2.4432,-2.4435,-2.4437,-2.4438,-2.4442,-2.4445,-2.4448,-2.4451,-2.4453,-2.4456,-2.4456,-2.4455,-2.4455,-2.4457,-2.4457,-2.4458,-2.4459,-2.4457,-2.4457,-2.4457,0,-2.4407,-2.4408,-2.4415,-2.4417,-2.442,-2.4422,-2.4424,-2.4429,-2.4431,-2.4436,-2.4437,-2.444,-2.4443,-2.4448,-2.4452,-2.4455,-2.4456,-2.4456,-2.4456,-2.4456,-2.4457,-2.4457,-2.4458,-2.4456,-2.4456,-2.4456,-2.4456,0,-2.4401,-2.4404,-2.4407,-2.4412,-2.4415,-2.4419,-2.4423,-2.4424,-2.443,-2.4432,-2.4436,-2.4438,-2.4444,-2.4447,-2.4452,-2.4454,-2.4456,-2.4456,-2.4457,-2.4456,-2.4456,-2.4457,-2.4456,-2.4456,-2.4456,-2.4456,-2.4456,-2.4456,-2.4396,-2.4398,-2.4404,-2.4408,-2.4412,-2.4416,-2.4418,-2.4423,-2.4426,-2.4431,-2.4434,-2.4438,-2.4443,-2.4449,-2.4452,-2.4456,-2.4456,-2.4457,-2.4457,-2.4457,-2.4458,-2.4456,-2.4456,-2.4456,-2.4456,-2.4456,-2.4456,0,-2.4391,-2.4396,-2.44,-2.4406,-2.441,-2.4413,-2.4418,-2.4421,-2.4425,-2.443,-2.4434,-2.4439,-2.4444,-2.4449,-2.4454,-2.4456,-2.4457,-2.4457,-2.4457,-2.4458,-2.4456,-2.4456,-2.4456,-2.4456,-2.4456,-2.4456,-2.4456,-2.4456,-2.4389,-2.4393,-2.4397,-2.4403,-2.4408,-2.4413,-2.4416,-2.442,-2.4424,-2.4431,-2.4435,-2.4439,-2.4444,-2.445,-2.4455,-2.4456,-2.4458,-2.4458,-2.446,-2.4458,-2.4458,-2.4458,-2.4457,-2.4458,-2.4458,-2.4461,-2.4461,-2.4461]}]]